Location: Brusselsch Zeekanaal
(50.8667°N, 4.3667°E)
Time: 00:21:57
(UTC+00:00)

CZ-3 R/B - Pass Details

Date: 08 November 2025
Orbit: 547 x 10009 km, 28.3° (Epoch: 04 December)

Event Time Altitude Azimuth Distance (km) Brightness Sun altitude
Rises 05:08:43 0° 232° (SW) 7,031 5.5 -15.6°
Reaches altitude 10° 05:19:12 10° 200° (SSW) 3,768 4.4 -13.9°
Maximum altitude 05:20:35 10° 191° (S) 3,448 4.3 -13.7°
Drops below altitude 10° 05:21:49 10° 181° (S) 3,227 4.3 -13.5°
Sets 05:26:47 0° 139° (SE) 3,258 5.2 -12.8°
